Le nostre stazioni meteo in Italia

Pubblicità
Il mio iltempo24.it
Chillingham Barns, Gran Bretagna (99196): Temperatura & dewpoint: 19.05.2019 07:00:00 - 25.05.2019 07:00:00 (BST)Chillingham Barns, Gran Bretagna (99196): precipitazioni: 19.05.2019 07:00:00 - 25.05.2019 07:00:00 (BST)
Data & Tempo tt [°C] td [°C] rr [mm]
25.05.2019 07:00:00 - - -
25.05.2019 06:00:00 7,0 6,8 0,0
25.05.2019 05:00:00 6,9 6,6 0,0
25.05.2019 04:00:00 6,1 5,6 0,0
25.05.2019 03:00:00 6,6 5,9 0,0
25.05.2019 02:00:00 7,6 6,7 0,0
25.05.2019 01:00:00 7,6 6,4 0,0
25.05.2019 00:00:00 9,0 6,8 0,0
24.05.2019 23:00:00 10,2 7,6 0,0
24.05.2019 22:00:00 10,0 7,6 0,0
24.05.2019 21:00:00 10,4 7,9 0,0
24.05.2019 20:00:00 12,3 8,4 0,0
24.05.2019 19:00:00 13,2 8,4 0,0
24.05.2019 18:00:00 14,2 8,7 0,0
24.05.2019 17:00:00 15,4 10,1 0,0
24.05.2019 16:00:00 15,7 9,0 0,0
24.05.2019 15:00:00 15,2 8,6 0,0
24.05.2019 14:00:00 14,8 7,9 0,0
24.05.2019 13:00:00 16,6 7,3 0,0
24.05.2019 12:00:00 16,4 7,9 0,0
24.05.2019 11:00:00 15,4 7,5 0,0
24.05.2019 10:00:00 13,4 6,9 0,0
24.05.2019 09:00:00 12,5 6,4 0,0
24.05.2019 08:00:00 11,0 5,5 0,0
24.05.2019 07:00:00 9,6 5,6 0,0
24.05.2019 06:00:00 8,5 5,5 0,0
24.05.2019 05:00:00 8,0 4,9 0,0
24.05.2019 04:00:00 8,1 4,7 0,0
24.05.2019 03:00:00 8,7 4,9 0,0
24.05.2019 02:00:00 9,4 5,1 0,0
24.05.2019 01:00:00 9,3 4,7 0,0
24.05.2019 00:00:00 9,5 4,7 0,0
23.05.2019 23:00:00 9,7 4,8 0,0
23.05.2019 22:00:00 11,1 5,1 0,0
23.05.2019 21:00:00 13,0 6,3 0,0
23.05.2019 20:00:00 14,7 6,8 0,0
23.05.2019 19:00:00 15,9 6,5 0,0
23.05.2019 18:00:00 17,5 7,0 0,0
23.05.2019 17:00:00 18,2 7,0 0,0
23.05.2019 16:00:00 18,4 7,1 0,0
23.05.2019 15:00:00 19,2 7,8 0,0
23.05.2019 14:00:00 17,9 6,8 0,0
23.05.2019 13:00:00 16,9 8,1 0,0
23.05.2019 12:00:00 14,5 6,2 0,0
23.05.2019 11:00:00 14,4 8,2 0,0
23.05.2019 10:00:00 13,4 6,6 0,0
23.05.2019 09:00:00 11,5 5,8 0,0
23.05.2019 08:00:00 10,6 5,7 0,0
23.05.2019 07:00:00 8,8 4,8 0,0
23.05.2019 06:00:00 7,6 4,5 0,0
23.05.2019 05:00:00 7,0 3,8 0,0
23.05.2019 04:00:00 8,1 3,9 0,0
23.05.2019 03:00:00 8,3 3,9 0,0
23.05.2019 02:00:00 8,7 4,4 0,0
23.05.2019 01:00:00 9,0 4,6 0,0
23.05.2019 00:00:00 9,2 5,1 0,0
22.05.2019 23:00:00 9,1 4,9 0,0
22.05.2019 22:00:00 10,8 5,2 0,0
22.05.2019 21:00:00 11,9 5,3 0,0
22.05.2019 20:00:00 13,4 5,5 0,0
22.05.2019 19:00:00 14,4 6,3 0,0
22.05.2019 18:00:00 14,9 7,0 0,0
22.05.2019 17:00:00 15,6 6,9 0,0
22.05.2019 16:00:00 15,9 7,8 0,0
22.05.2019 15:00:00 14,1 6,5 0,0
22.05.2019 14:00:00 13,6 6,4 0,0
22.05.2019 13:00:00 12,9 5,6 0,0
22.05.2019 12:00:00 12,9 4,3 0,0
22.05.2019 11:00:00 13,3 6,2 0,0
22.05.2019 10:00:00 12,0 5,6 0,0
22.05.2019 09:00:00 11,0 5,8 0,0
22.05.2019 08:00:00 9,6 5,9 0,0
22.05.2019 07:00:00 6,9 6,5 0,0
22.05.2019 06:00:00 5,3 4,9 0,0
22.05.2019 05:00:00 5,1 5,0 0,0
22.05.2019 04:00:00 3,4 3,1 0,0
22.05.2019 03:00:00 4,3 4,1 0,0
22.05.2019 02:00:00 4,7 4,5 0,0
22.05.2019 01:00:00 5,1 4,7 0,2
22.05.2019 00:00:00 6,2 5,5 0,0
21.05.2019 23:00:00 7,6 6,8 0,8
21.05.2019 22:00:00 8,3 7,0 10,6
21.05.2019 21:00:00 9,4 8,1 0,0
21.05.2019 20:00:00 10,5 8,8 1,6
21.05.2019 19:00:00 10,5 8,0 0,0
21.05.2019 18:00:00 10,8 8,1 0,2
21.05.2019 17:00:00 10,8 7,7 1,2
21.05.2019 16:00:00 13,4 7,1 0,0
21.05.2019 15:00:00 15,4 9,5 0,0
21.05.2019 14:00:00 14,7 8,2 0,0
21.05.2019 13:00:00 13,4 8,1 0,0
21.05.2019 12:00:00 13,2 8,5 0,0
21.05.2019 11:00:00 11,0 8,2 0,0
21.05.2019 10:00:00 10,5 8,8 0,0
21.05.2019 09:00:00 10,7 8,7 0,0
21.05.2019 08:00:00 10,3 8,7 0,0
21.05.2019 07:00:00 8,8 8,6 0,0
21.05.2019 06:00:00 6,6 6,5 0,0
21.05.2019 05:00:00 5,3 5,0 0,0
21.05.2019 04:00:00 5,7 5,4 0,0
21.05.2019 03:00:00 5,3 4,9 0,0
21.05.2019 02:00:00 6,3 5,9 0,0
21.05.2019 01:00:00 6,9 6,1 0,0
21.05.2019 00:00:00 8,9 8,0 0,0
20.05.2019 23:00:00 10,3 8,6 0,0
20.05.2019 22:00:00 11,3 9,8 0,0
20.05.2019 21:00:00 11,7 10,3 0,0
20.05.2019 20:00:00 12,4 10,5 1,0
20.05.2019 19:00:00 13,7 11,0 0,0
20.05.2019 18:00:00 13,2 11,4 0,6
20.05.2019 17:00:00 12,7 10,3 0,6
20.05.2019 16:00:00 14,7 10,7 0,0
20.05.2019 15:00:00 15,7 8,9 0,0
20.05.2019 14:00:00 16,2 8,8 0,0
20.05.2019 13:00:00 14,8 8,4 0,0
20.05.2019 12:00:00 15,4 9,0 0,0
20.05.2019 11:00:00 13,9 8,4 0,0
20.05.2019 10:00:00 14,0 9,0 0,0
20.05.2019 09:00:00 12,8 8,9 0,0
20.05.2019 08:00:00 11,3 9,4 0,0
20.05.2019 07:00:00 10,2 9,3 0,0
20.05.2019 06:00:00 9,6 9,1 0,0
20.05.2019 05:00:00 9,3 8,9 0,0
20.05.2019 04:00:00 9,0 8,6 0,0
20.05.2019 03:00:00 8,6 7,9 0,0
20.05.2019 02:00:00 8,7 8,0 0,0
20.05.2019 01:00:00 8,6 7,8 0,0
20.05.2019 00:00:00 9,3 8,2 0,0
19.05.2019 23:00:00 9,7 7,7 0,0
19.05.2019 22:00:00 11,6 8,7 0,0
19.05.2019 21:00:00 12,5 8,8 0,0
19.05.2019 20:00:00 13,3 9,1 0,0
19.05.2019 19:00:00 14,0 10,3 0,0
19.05.2019 18:00:00 13,7 10,7 0,0
19.05.2019 17:00:00 13,2 10,0 0,0
19.05.2019 16:00:00 15,2 10,8 0,0
19.05.2019 15:00:00 14,1 10,6 0,0
19.05.2019 14:00:00 13,0 10,1 0,0
19.05.2019 13:00:00 13,1 10,2 0,0
19.05.2019 12:00:00 14,6 11,0 0,0
19.05.2019 11:00:00 14,7 9,4 0,0
19.05.2019 10:00:00 14,2 10,6 0,0
19.05.2019 09:00:00 12,2 10,7 0,0
19.05.2019 08:00:00 9,3 8,9 0,0
19.05.2019 07:00:00 9,3 9,1 0,0

tt = Temperatura
td = dewpoint
rr = precipitazioni

Stazioni seguenti

WeatherPro
AMSI
MeteoEarth